Home   Weather   Amiens   Past weeks

Flag for France Past Weather in Amiens, Picardy, France — Yesterday and Last 2 Weeks

Now
45 °F

Clear.


Feels Like: 39 °F
Forecast: 42 / 50 °F
Wind: 12 mph from Southwest

Location: Beauvais Airport

Current Time: Dec 10, 2016 at 11:21:17 pm

Latest Report: Dec 10, 2016 at 11:00 pm


Visibility: 10 mi

Pressure: 30.18 "Hg

Humidity: 87%

Dew Point: 41 °F

Location of AmiensLocation

Past Weather in Amiens — Graph

°F

Amiens Temperature Yesterday

Maximum temperature yesterday: 52 °F (at 2:30 pm)
Minimum temperature yesterday: 34 °F (at 1:30 am)
Average temperature yesterday: 39 °F

High & Low Weather Summary for the Past Weeks

 TemperatureHumidityPressure
High52 °F (Dec 8, 2:30 pm)100% (Dec 1, 9:30 pm)30.57 "Hg (Dec 1, 9:30 pm)
Low19 °F (Nov 30, 6:30 am)53% (Nov 28, 1:30 pm)30.04 "Hg (Nov 25, 10:00 pm)
Average36 °F87%30.31 "Hg
* Reported Nov 25 10:00 pm — Dec 10 10:00 pm, Amiens, Weather by CustomWeather, © 2016

Note: Actual official high and low records may vary slightly from our data, if they occured in-between our weather recording intervals... More about our weather records

Advertising

Amiens Weather History for the Previous 24 Hours

Scroll right to see more
 ConditionsComfort  
Time TempWeatherWind HumidityBarometerVisibility
10:00 pm
Sat, Dec 10
46 °FClear.14 mph87%30.21 "Hg10 mi
9:30 pm45 °FClear.7 mph93%30.21 "Hg10 mi
9:00 pm43 °FClear.1 mph93%30.21 "Hg10 mi
8:30 pm43 °FClear.3 mph93%30.24 "Hg5 mi
8:00 pm43 °FPassing clouds.6 mph93%30.24 "HgN/A
7:30 pm41 °FFog.5 mph93%30.24 "Hg2 mi
7:00 pm43 °FFog.3 mph93%30.24 "Hg3 mi
6:30 pm43 °FClear.3 mph93%30.24 "Hg4 mi
6:00 pm43 °FClear.5 mph93%30.24 "Hg4 mi
5:30 pm43 °FClear.3 mph93%30.24 "Hg4 mi
5:00 pm45 °FLight rain. Clear.3 mph87%30.27 "Hg4 mi
4:30 pm45 °FOvercast.3 mph93%30.27 "Hg6 mi
4:00 pm46 °FPartly sunny.5 mph87%30.27 "HgN/A
3:30 pm46 °FBroken clouds.5 mph87%30.27 "HgN/A
3:00 pm46 °FOvercast.5 mph93%30.27 "HgN/A
2:30 pm46 °FCloudy.5 mph87%30.27 "HgN/A
2:00 pm45 °FFog.3 mph93%30.27 "Hg3 mi
1:30 pm43 °FFog.2 mph93%30.30 "Hg3 mi
1:00 pm41 °FFog.1 mph100%30.30 "Hg2 mi
12:30 pm41 °FFog.3 mph93%30.30 "Hg2 mi
12:00 pm39 °FFog.3 mph100%30.30 "Hg1 mi
11:30 am39 °FFog.No wind100%30.30 "Hg1 mi
11:00 am37 °FFog.No wind93%30.33 "Hg1 mi
10:30 am36 °FMostly cloudy.1 mph100%30.30 "Hg1 mi
10:00 am34 °FFog.3 mph100%30.30 "Hg1 mi
9:30 am32 °FIce fog.No wind93%30.30 "Hg1 mi
9:00 am34 °FLight rain. Fog.No wind93%30.30 "Hg0 mi
8:30 am32 °FLight snow. Fog.No wind100%30.30 "Hg1 mi
8:00 am32 °FFog.3 mph93%30.30 "Hg0 mi
7:30 am34 °FLight rain. Passing clouds.3 mph93%30.30 "Hg1 mi
7:00 am32 °FFog.1 mph100%30.27 "Hg0 mi
6:30 am34 °FLight fog.3 mph100%30.27 "Hg1 mi
6:00 am34 °FLight fog.3 mph93%30.27 "Hg1 mi
5:30 am34 °FFog.5 mph93%30.27 "Hg2 mi
5:00 am36 °FFog.2 mph100%30.27 "Hg3 mi
4:30 am36 °FFog.2 mph93%30.30 "Hg2 mi
4:00 am34 °FFog.6 mph100%30.30 "Hg3 mi
3:30 am36 °FClear.3 mph100%30.30 "Hg4 mi
3:00 am36 °FClear.3 mph100%30.30 "Hg4 mi
2:30 am37 °FClear.2 mph93%30.30 "Hg4 mi
2:00 am37 °FClear.2 mph100%30.33 "Hg4 mi
1:30 am37 °FClear.2 mph100%30.33 "Hg4 mi
1:00 am36 °FClear.3 mph100%30.33 "Hg4 mi
12:30 am37 °FFog.1 mph93%30.33 "Hg2 mi
12:00 am37 °FFog.2 mph93%30.33 "Hg2 mi
11:30 pm
Fri, Dec 9
36 °FLight fog.1 mph93%30.33 "Hg1 mi
11:00 pm37 °FFog.3 mph100%30.33 "Hg3 mi
Weather by CustomWeather, © 2016

See weather overviewHow to use our weather pages